This demonstration page uses our WeatherBlox Daily Observations layout. Learn more.

39.51506, -84.39828

Hourly Observations for August 30, 2020

Temp ( °F °C ) Dew Point ( °F °C ) Humidity (%) Winds ( mph kmh ) Pressure ( in mb ) Visibility ( mi km ) Precip ( " mm )
12:15 am 00:15 Clear 66 19.1 57 13.9 72 72 N 3 6 29.86 1011 10 16.0934 0 0
12:35 am 00:35 Clear 65 18.6 57 13.9 74 74 N 3 6 29.86 1011 10 16.0934 0 0
12:55 am 00:55 Clear 65 18.1 56 13.6 75 75 N 3 6 29.87 1011 10 16.0934 0 0
1:15 am 01:15 Clear 64 17.8 56 13.2 75 75 Calm 29.87 1012 10 16.0934 0 0
1:35 am 01:35 Clear 62 16.9 56 13.1 78 78 Calm 29.88 1012 10 16.0934 0 0
1:55 am 01:55 Clear 64 17.5 56 13.3 77 77 Calm 29.88 1012 10 16.0934 0 0
2:15 am 02:15 Clear 61 16 56 13.2 84 84 Calm 29.88 1012 10 16.0934 0 0
2:35 am 02:35 Clear 60 15.6 57 13.9 90 90 Calm 29.89 1012 10 16.0934 0 0
2:55 am 02:55 Clear 57 13.9 56 13.6 98 98 Calm 29.89 1012 10 16.0934 0 0
3:15 am 03:15 Clear 58 14.3 56 13.6 96 96 Calm 29.89 1012 10 16.0934 0 0
3:35 am 03:35 Clear 57 14 57 13.9 99 99 Calm 29.89 1012 10 16.0934 0 0
3:55 am 03:55 Clear 56 13.4 56 13.3 99 99 Calm 29.9 1013 10 16.0934 0 0
4:15 am 04:15 Clear 56 13.5 56 13.4 99 99 Calm 29.9 1013 10 16.0934 0 0
4:35 am 04:35 Clear 54 12 54 12 100 100 Calm 29.9 1013 10 16.0934 0 0
4:55 am 04:55 Clear with Mist and Fog 54 12 N/A N/A Calm 29.91 1013 2.5 4.02335 0 0
5:15 am 05:15 Clear 54 12 N/A N/A Calm 29.9 1013 10 16.0934 0 0
5:35 am 05:35 Clear 54 12 N/A N/A N 3 6 29.9 1013 10 16.0934 0 0
5:55 am 05:55 Clear 54 12 N/A N/A Calm 29.92 1013 10 16.0934 0 0
6:15 am 06:15 Mostly Cloudy with Fog 52 11 N/A N/A Calm 29.93 1013 0.5 0.80467 0 0
6:35 am 06:35 Hazy 54 12 N/A N/A Calm 29.92 1013 5 8.0467 0 0
6:55 am 06:55 Clear 52 11 N/A N/A Calm 29.93 1013 10 16.0934 0 0
7:15 am 07:15 Sunny 52 11 N/A N/A Calm 29.94 1014 10 16.0934 0 0
7:35 am 07:35 Sunny 54 12 N/A N/A Calm 29.94 1014 7 11.26538 0 0
7:55 am 07:55 Sunny 54 12 N/A N/A Calm 29.94 1014 10 16.0934 0 0
8:15 am 08:15 Sunny 55 13 N/A N/A Calm 29.95 1014 10 16.0934 0 0
8:35 am 08:35 Sunny 58 14.7 57 13.8 94 94 Calm 29.95 1014 10 16.0934 0 0
8:55 am 08:55 Sunny 61 16 58 14.4 90 90 Calm 29.94 1014 10 16.0934 0 0
9:15 am 09:15 Sunny 64 17.8 58 14.4 81 81 Calm 29.94 1014 10 16.0934 0 0
9:35 am 09:35 Sunny 66 18.9 58 14.3 75 75 Calm 29.95 1014 10 16.0934 0 0
9:55 am 09:55 Sunny 68 19.9 57 14 69 69 Calm 29.94 1014 10 16.0934 0 0
10:15 am 10:15 Sunny 70 20.9 58 14.2 66 66 ENE 6 9 29.94 1014 10 16.0934 0 0
10:35 am 10:35 Sunny 71 21.8 57 14.1 62 62 ENE 3 6 29.95 1014 10 16.0934 0 0
10:55 am 10:55 Sunny 72 22.3 56 13.6 58 58 Calm 29.95 1014 10 16.0934 0 0
11:15 am 11:15 Sunny 73 22.8 54 12.3 52 52 E 3 6 29.95 1014 10 16.0934 0 0
11:35 am 11:35 Sunny 74 23.6 55 12.8 51 51 Calm 29.95 1014 10 16.0934 0 0
11:55 am 11:55 Sunny 75 23.8 55 12.6 50 50 ENE 5 7 29.95 1014 10 16.0934 0 0
12:15 pm 12:15 Sunny 75 24 53 11.5 46 46 Calm 29.94 1014 10 16.0934 0 0
12:35 pm 12:35 Sunny 76 24.7 53 11.8 45 45 NE 5 7 29.92 1013 10 16.0934 0 0
12:55 pm 12:55 Sunny 77 25 54 12.2 45 45 ENE 5 7 29.92 1013 10 16.0934 0 0
1:15 pm 13:15 Sunny 77 24.9 53 11.7 44 44 E 3 6 29.91 1013 10 16.0934 0 0
1:35 pm 13:35 Sunny 78 25.6 54 12 43 43 NNE 6 9 29.9 1013 10 16.0934 0 0
1:55 pm 13:55 Sunny 77 25 53 11.5 43 43 ENE 6 9 29.9 1013 10 16.0934 0 0
2:15 pm 14:15 Sunny 77 25.2 53 11.9 44 44 NE 5 7 29.9 1013 10 16.0934 0 0
2:35 pm 14:35 Sunny 78 25.4 53 11.7 42 42 Calm 29.89 1012 10 16.0934 0 0
2:55 pm 14:55 Sunny 78 25.8 53 11.6 41 41 E 3 6 29.88 1012 10 16.0934 0 0
3:15 pm 15:15 Partly Cloudy 77 25.2 53 11.9 44 44 NE 5 7 29.87 1012 10 16.0934 0 0
3:35 pm 15:35 Sunny 77 25.1 53 11.8 44 44 NNE 5 7 29.86 1011 10 16.0934 0 0
3:55 pm 15:55 Sunny 79 26.2 54 12.1 42 42 ENE 8 13 29.85 1011 10 16.0934 0 0
4:15 pm 16:15 Sunny 80 26.4 53 11.4 39 39 N 3 6 29.86 1011 10 16.0934 0 0
4:35 pm 16:35 Sunny 81 27 54 12.1 40 40 E 6 9 29.85 1011 10 16.0934 0 0
4:55 pm 16:55 Sunny 79 26 53 11.5 40 40 SE 3 6 29.85 1011 10 16.0934 0 0
5:15 pm 17:15 Partly Cloudy 79 25.9 55 12.7 44 44 SE 5 7 29.85 1011 10 16.0934 0 0
5:35 pm 17:35 Sunny 79 26.1 55 12.6 43 43 E 3 6 29.85 1011 10 16.0934 0 0
5:55 pm 17:55 Sunny 78 25.5 55 12.5 44 44 SE 5 7 29.84 1011 10 16.0934 0 0
6:15 pm 18:15 Sunny 77 25.1 54 12.4 45 45 E 5 7 29.84 1011 10 16.0934 0 0
6:35 pm 18:35 Sunny 76 24.7 55 12.7 47 47 E 6 9 29.84 1011 10 16.0934 0 0
6:55 pm 18:55 Sunny 76 24.4 56 13.3 50 50 ENE 6 9 29.84 1011 10 16.0934 0 0
7:15 pm 19:15 Sunny 75 24 56 13.2 51 51 E 7 11 29.86 1011 10 16.0934 0 0
7:35 pm 19:35 Sunny 74 23.5 56 13.6 54 54 E 5 7 29.86 1011 10 16.0934 0 0
7:50 pm 19:50 Sunny 75 23.7 56 13.3 52 52 E 5 7 29.86 1011 10 16.0934 0 0
8:15 pm 20:15 Clear 73 22.5 56 13.4 57 57 E 3 6 29.88 1012 10 16.0934 0 0
8:35 pm 20:35 Clear 71 21.7 56 13.5 60 60 Calm 29.88 1012 10 16.0934 0 0
8:55 pm 20:55 Clear 67 19.4 59 15.2 77 77 Calm 29.89 1012 10 16.0934 0 0
9:15 pm 21:15 Clear 66 18.9 60 15.4 80 80 Calm 29.9 1012 10 16.0934 0 0
9:35 pm 21:35 Clear 64 17.7 59 14.8 83 83 Calm 29.91 1013 10 16.0934 0 0
9:55 pm 21:55 Clear 63 17.4 59 15.2 87 87 Calm 29.9 1013 10 16.0934 0 0
10:15 pm 22:15 Clear 63 17.2 59 15.2 88 88 NNE 3 6 29.89 1012 10 16.0934 0 0
10:35 pm 22:35 Clear 63 17.3 59 15.1 87 87 Calm 29.89 1012 10 16.0934 0 0
10:55 pm 22:55 Clear 62 16.8 59 14.8 88 88 N 3 6 29.89 1012 10 16.0934 0 0
11:15 pm 23:15 Clear 62 16.8 58 14.7 88 88 Calm 29.88 1012 10 16.0934 0 0
11:35 pm 23:35 Clear 62 16.7 58 14.7 88 88 Calm 29.89 1012 10 16.0934 0 0
11:55 pm 23:55 Clear 61 16 58 14.7 92 92 Calm 29.9 1013 10 16.0934 0 0

Powered by AerisWeather